Time,TemperatureF,DewpointF,PressureIn,WindDirection,WindDirectionDegrees,WindSpeedMPH,WindSpeedGustMPH,Humidity,HourlyPrecipIn,Conditions,Clouds,dailyrainin,SoftwareType,DateUTC
2013-01-27 00:04:00,34.7,34.0,30.21,West,270,0.0,0.0,98,0.00,,,0.00,weatherlink.com 1.10,2013-01-27 08:04:00,
2013-01-27 00:19:00,35.2,35.0,30.21,West,270,0.0,0.0,98,0.00,,,0.00,weatherlink.com 1.10,2013-01-27 08:19:00,
2013-01-27 00:34:00,35.7,35.0,30.21,SW,219,0.0,0.0,98,0.00,,,0.00,weatherlink.com 1.10,2013-01-27 08:34:00,
2013-01-27 00:49:00,36.0,36.0,30.21,SW,219,0.0,1.0,98,0.00,,,0.00,weatherlink.com 1.10,2013-01-27 08:49:00,
2013-01-27 01:04:00,36.2,36.0,30.21,SW,226,0.0,0.0,98,0.00,,,0.00,weatherlink.com 1.10,2013-01-27 09:04:00,
2013-01-27 01:20:00,36.3,36.0,30.21,SW,236,0.0,1.0,98,0.00,,,0.00,weatherlink.com 1.10,2013-01-27 09:20:00,
2013-01-27 01:34:00,36.3,36.0,30.22,SW,236,0.0,0.0,99,0.00,,,0.00,weatherlink.com 1.10,2013-01-27 09:34:00,
2013-01-27 01:49:00,36.2,36.0,30.22,SW,236,0.0,0.0,98,0.00,,,0.00,weatherlink.com 1.10,2013-01-27 09:49:00,
2013-01-27 02:04:00,36.1,36.0,30.22,SW,236,0.0,0.0,98,0.00,,,0.00,weatherlink.com 1.10,2013-01-27 10:04:00,
2013-01-27 02:20:00,36.2,36.0,30.22,SW,236,0.0,0.0,99,0.00,,,0.00,weatherlink.com 1.10,2013-01-27 10:20:00,
2013-01-27 02:34:00,36.2,36.0,30.23,WSW,237,0.0,0.0,99,0.00,,,0.00,weatherlink.com 1.10,2013-01-27 10:34:00,
2013-01-27 02:50:00,36.1,36.0,30.23,SW,236,0.0,0.0,98,0.00,,,0.00,weatherlink.com 1.10,2013-01-27 10:50:00,
2013-01-27 03:04:00,36.5,36.0,30.23,SW,236,0.0,0.0,99,0.00,,,0.00,weatherlink.com 1.10,2013-01-27 11:04:00,
2013-01-27 03:19:00,36.2,36.0,30.23,SW,236,0.0,0.0,99,0.00,,,0.00,weatherlink.com 1.10,2013-01-27 11:19:00,
2013-01-27 03:34:00,36.2,36.0,30.23,SW,236,0.0,0.0,98,0.00,,,0.00,weatherlink.com 1.10,2013-01-27 11:34:00,
2013-01-27 03:50:00,35.9,35.0,30.23,SW,236,0.0,0.0,98,0.00,,,0.00,weatherlink.com 1.10,2013-01-27 11:50:00,
2013-01-27 04:06:00,35.8,35.0,30.23,SW,236,0.0,0.0,98,0.00,,,0.00,weatherlink.com 1.10,2013-01-27 12:06:00,
2013-01-27 04:19:00,35.8,35.0,30.23,NW,308,0.0,1.0,98,0.00,,,0.00,weatherlink.com 1.10,2013-01-27 12:19:00,
2013-01-27 04:34:00,35.7,35.0,30.23,NW,308,0.0,0.0,98,0.00,,,0.00,weatherlink.com 1.10,2013-01-27 12:34:00,
2013-01-27 04:49:00,35.5,35.0,30.23,NW,307,0.0,0.0,98,0.00,,,0.00,weatherlink.com 1.10,2013-01-27 12:49:00,
2013-01-27 05:04:00,35.5,35.0,30.23,NW,307,0.0,0.0,98,0.00,,,0.00,weatherlink.com 1.10,2013-01-27 13:04:00,
2013-01-27 05:19:00,35.3,35.0,30.22,NW,307,0.0,0.0,98,0.00,,,0.00,weatherlink.com 1.10,2013-01-27 13:19:00,
2013-01-27 05:34:00,35.6,35.0,30.23,WNW,300,0.0,0.0,99,0.00,,,0.00,weatherlink.com 1.10,2013-01-27 13:34:00,
2013-01-27 05:49:00,35.4,35.0,30.23,WNW,299,0.0,0.0,99,0.00,,,0.00,weatherlink.com 1.10,2013-01-27 13:49:00,
2013-01-27 06:04:00,35.5,35.0,30.23,WNW,299,0.0,0.0,99,0.00,,,0.00,weatherlink.com 1.10,2013-01-27 14:04:00,
2013-01-27 06:19:00,35.3,35.0,30.23,WNW,299,0.0,0.0,99,0.00,,,0.00,weatherlink.com 1.10,2013-01-27 14:19:00,
2013-01-27 06:34:00,35.6,35.0,30.24,WNW,300,0.0,0.0,99,0.00,,,0.00,weatherlink.com 1.10,2013-01-27 14:34:00,
2013-01-27 06:50:00,35.7,36.0,30.24,WNW,299,0.0,0.0,99,0.00,,,0.00,weatherlink.com 1.10,2013-01-27 14:50:00,
2013-01-27 07:04:00,35.9,36.0,30.24,NW,311,0.0,0.0,99,0.00,,,0.00,weatherlink.com 1.10,2013-01-27 15:04:00,
2013-01-27 07:20:00,35.9,36.0,30.24,West,275,0.0,0.0,99,0.00,,,0.00,weatherlink.com 1.10,2013-01-27 15:20:00,
2013-01-27 07:35:00,35.6,35.0,30.24,West,275,0.0,0.0,99,0.00,,,0.00,weatherlink.com 1.10,2013-01-27 15:35:00,
2013-01-27 07:50:00,35.3,35.0,30.24,West,276,0.0,0.0,99,0.00,,,0.00,weatherlink.com 1.10,2013-01-27 15:50:00,
2013-01-27 08:05:00,34.9,35.0,30.25,West,276,0.0,0.0,99,0.00,,,0.00,weatherlink.com 1.10,2013-01-27 16:05:00,
2013-01-27 08:20:00,34.3,34.0,30.25,West,276,0.0,0.0,99,0.00,,,0.00,weatherlink.com 1.10,2013-01-27 16:20:00,
2013-01-27 08:35:00,35.1,35.0,30.26,NNW,328,0.0,1.0,99,0.00,,,0.00,weatherlink.com 1.10,2013-01-27 16:35:00,
2013-01-27 08:50:00,36.3,36.0,30.26,WNW,298,0.0,2.0,99,0.00,,,0.00,weatherlink.com 1.10,2013-01-27 16:50:00,
2013-01-27 09:05:00,37.1,37.0,30.27,SW,235,0.0,1.0,99,0.00,,,0.00,weatherlink.com 1.10,2013-01-27 17:05:00,
2013-01-27 09:20:00,37.8,38.0,30.27,East,91,0.0,1.0,99,0.00,,,0.00,weatherlink.com 1.10,2013-01-27 17:20:00,
2013-01-27 09:35:00,38.6,38.0,30.27,SW,219,0.0,2.0,99,0.00,,,0.00,weatherlink.com 1.10,2013-01-27 17:35:00,
2013-01-27 09:50:00,38.6,38.0,30.27,WNW,284,0.0,1.0,99,0.00,,,0.00,weatherlink.com 1.10,2013-01-27 17:50:00,
2013-01-27 10:05:00,40.2,40.0,30.27,SSE,168,0.0,1.0,99,0.00,,,0.00,weatherlink.com 1.10,2013-01-27 18:05:00,
2013-01-27 10:20:00,41.0,41.0,30.28,SSW,208,0.0,1.0,99,0.00,,,0.00,weatherlink.com 1.10,2013-01-27 18:20:00,
2013-01-27 10:35:00,41.2,41.0,30.27,ESE,112,0.0,3.0,99,0.00,,,0.00,weatherlink.com 1.10,2013-01-27 18:35:00,
2013-01-27 10:50:00,41.8,41.0,30.28,South,181,0.0,1.0,98,0.00,,,0.00,weatherlink.com 1.10,2013-01-27 18:50:00,
2013-01-27 11:05:00,42.2,41.0,30.27,WNW,285,0.0,2.0,96,0.00,,,0.00,weatherlink.com 1.10,2013-01-27 19:05:00,
2013-01-27 11:20:00,42.1,41.0,30.27,SW,215,0.0,6.0,95,0.00,,,0.00,weatherlink.com 1.10,2013-01-27 19:20:00,
2013-01-27 11:35:00,42.6,41.0,30.27,WNW,285,1.0,2.0,95,0.01,,,0.01,weatherlink.com 1.10,2013-01-27 19:35:00,
2013-01-27 11:50:00,42.5,41.0,30.27,ESE,113,0.0,3.0,95,0.01,,,0.01,weatherlink.com 1.10,2013-01-27 19:50:00,
2013-01-27 12:05:00,42.3,41.0,30.26,SW,219,1.0,3.0,94,0.02,,,0.02,weatherlink.com 1.10,2013-01-27 20:05:00,
2013-01-27 12:20:00,42.1,41.0,30.26,ESE,107,0.0,4.0,95,0.03,,,0.03,weatherlink.com 1.10,2013-01-27 20:20:00,
2013-01-27 12:35:00,42.0,41.0,30.25,NNE,30,1.0,4.0,95,0.03,,,0.04,weatherlink.com 1.10,2013-01-27 20:35:00,
2013-01-27 12:50:00,42.2,41.0,30.24,East,92,1.0,3.0,95,0.03,,,0.04,weatherlink.com 1.10,2013-01-27 20:50:00,
2013-01-27 13:05:00,42.2,41.0,30.23,SSW,200,0.0,9.0,95,0.03,,,0.05,weatherlink.com 1.10,2013-01-27 21:05:00,
2013-01-27 13:20:00,42.2,41.0,30.23,ESE,117,0.0,5.0,95,0.02,,,0.05,weatherlink.com 1.10,2013-01-27 21:20:00,
2013-01-27 13:35:00,42.2,41.0,30.22,South,172,1.0,9.0,95,0.01,,,0.05,weatherlink.com 1.10,2013-01-27 21:35:00,
2013-01-27 13:51:00,42.3,41.0,30.21,SSE,158,2.0,7.0,95,0.01,,,0.05,weatherlink.com 1.10,2013-01-27 21:51:00,
2013-01-27 14:05:00,42.5,41.0,30.21,South,188,0.0,4.0,95,0.00,,,0.05,weatherlink.com 1.10,2013-01-27 22:05:00,
2013-01-27 14:20:00,42.5,42.0,30.20,ESE,107,1.0,5.0,96,0.00,,,0.05,weatherlink.com 1.10,2013-01-27 22:20:00,
2013-01-27 14:35:00,42.3,41.0,30.20,SE,139,0.0,10.0,95,0.00,,,0.05,weatherlink.com 1.10,2013-01-27 22:35:00,
2013-01-27 14:50:00,42.2,41.0,30.20,South,191,0.0,4.0,96,0.01,,,0.06,weatherlink.com 1.10,2013-01-27 22:50:00,
2013-01-27 15:05:00,42.1,41.0,30.20,SSE,158,1.0,5.0,95,0.01,,,0.06,weatherlink.com 1.10,2013-01-27 23:05:00,
2013-01-27 15:21:00,42.0,41.0,30.20,NW,311,1.0,5.0,95,0.01,,,0.06,weatherlink.com 1.10,2013-01-27 23:21:00,
2013-01-27 15:35:00,41.9,41.0,30.20,WSW,239,0.0,6.0,95,0.01,,,0.06,weatherlink.com 1.10,2013-01-27 23:35:00,
2013-01-27 15:51:00,41.8,41.0,30.20,NE,50,0.0,5.0,95,0.00,,,0.06,weatherlink.com 1.10,2013-01-27 23:51:00,
2013-01-27 16:05:00,41.6,40.0,30.20,SW,231,1.0,3.0,95,0.00,,,0.06,weatherlink.com 1.10,2013-01-28 00:05:00,
2013-01-27 16:21:00,41.5,41.0,30.20,WNW,293,0.0,1.0,96,0.01,,,0.07,weatherlink.com 1.10,2013-01-28 00:21:00,
2013-01-27 16:35:00,41.3,40.0,30.20,SSW,204,0.0,3.0,96,0.01,,,0.07,weatherlink.com 1.10,2013-01-28 00:35:00,
2013-01-27 16:51:00,41.0,40.0,30.20,ESE,120,0.0,1.0,96,0.02,,,0.08,weatherlink.com 1.10,2013-01-28 00:51:00,
2013-01-27 17:05:00,40.7,40.0,30.20,NNE,29,0.0,3.0,96,0.02,,,0.08,weatherlink.com 1.10,2013-01-28 01:05:00,
2013-01-27 17:20:00,40.6,40.0,30.20,SSE,149,0.0,3.0,96,0.01,,,0.08,weatherlink.com 1.10,2013-01-28 01:20:00,
2013-01-27 17:35:00,40.3,39.0,30.19,West,278,1.0,2.0,96,0.01,,,0.08,weatherlink.com 1.10,2013-01-28 01:35:00,
2013-01-27 17:51:00,40.1,39.0,30.19,SE,143,1.0,3.0,96,0.01,,,0.09,weatherlink.com 1.10,2013-01-28 01:51:00,
2013-01-27 18:05:00,39.9,39.0,30.19,SSE,153,0.0,1.0,96,0.01,,,0.09,weatherlink.com 1.10,2013-01-28 02:05:00,
2013-01-27 18:20:00,39.8,39.0,30.19,SE,146,0.0,2.0,96,0.01,,,0.09,weatherlink.com 1.10,2013-01-28 02:20:00,
2013-01-27 18:35:00,39.7,39.0,30.19,WSW,242,0.0,4.0,96,0.01,,,0.09,weatherlink.com 1.10,2013-01-28 02:35:00,
2013-01-27 18:50:00,39.7,39.0,30.18,ESE,105,0.0,4.0,96,0.00,,,0.09,weatherlink.com 1.10,2013-01-28 02:50:00,
2013-01-27 19:05:00,39.7,39.0,30.18,East,84,1.0,2.0,96,0.00,,,0.09,weatherlink.com 1.10,2013-01-28 03:05:00,
2013-01-27 19:20:00,39.7,39.0,30.18,East,92,0.0,1.0,96,0.00,,,0.09,weatherlink.com 1.10,2013-01-28 03:20:00,
2013-01-27 19:36:00,39.6,39.0,30.18,East,79,0.0,1.0,96,0.00,,,0.09,weatherlink.com 1.10,2013-01-28 03:36:00,
2013-01-27 19:51:00,39.6,39.0,30.18,East,79,0.0,0.0,96,0.00,,,0.09,weatherlink.com 1.10,2013-01-28 03:51:00,
2013-01-27 20:06:00,39.5,39.0,30.18,ENE,78,0.0,1.0,97,0.00,,,0.09,weatherlink.com 1.10,2013-01-28 04:06:00,
2013-01-27 20:21:00,39.5,39.0,30.18,ENE,78,0.0,0.0,97,0.00,,,0.09,weatherlink.com 1.10,2013-01-28 04:21:00,
2013-01-27 20:36:00,39.6,39.0,30.18,SSE,158,0.0,2.0,97,0.00,,,0.09,weatherlink.com 1.10,2013-01-28 04:36:00,
2013-01-27 20:51:00,39.5,39.0,30.18,East,97,2.0,5.0,96,0.00,,,0.09,weatherlink.com 1.10,2013-01-28 04:51:00,
2013-01-27 21:06:00,39.3,38.0,30.19,SE,124,1.0,4.0,96,0.00,,,0.09,weatherlink.com 1.10,2013-01-28 05:06:00,
2013-01-27 21:21:00,39.2,38.0,30.19,SSW,198,3.0,7.0,96,0.00,,,0.09,weatherlink.com 1.10,2013-01-28 05:21:00,
2013-01-27 21:36:00,39.0,38.0,30.19,South,174,0.0,3.0,96,0.00,,,0.09,weatherlink.com 1.10,2013-01-28 05:36:00,
2013-01-27 21:51:00,39.0,38.0,30.19,NNE,26,0.0,1.0,96,0.00,,,0.09,weatherlink.com 1.10,2013-01-28 05:51:00,
2013-01-27 22:06:00,38.9,38.0,30.20,WSW,249,0.0,1.0,96,0.00,,,0.09,weatherlink.com 1.10,2013-01-28 06:06:00,
2013-01-27 22:21:00,38.7,38.0,30.20,NW,305,0.0,0.0,96,0.00,,,0.09,weatherlink.com 1.10,2013-01-28 06:21:00,
2013-01-27 22:36:00,38.5,38.0,30.20,SSE,157,0.0,1.0,96,0.00,,,0.09,weatherlink.com 1.10,2013-01-28 06:36:00,
2013-01-27 22:51:00,38.5,38.0,30.20,ENE,58,0.0,1.0,96,0.00,,,0.09,weatherlink.com 1.10,2013-01-28 06:51:00,
2013-01-27 23:21:00,38.3,38.0,30.21,West,273,0.0,1.0,97,0.00,,,0.09,weatherlink.com 1.10,2013-01-28 07:21:00,
2013-01-27 23:36:00,38.2,38.0,30.21,NW,316,0.0,1.0,97,0.00,,,0.09,weatherlink.com 1.10,2013-01-28 07:36:00,
2013-01-27 23:51:00,38.0,37.0,30.21,NW,316,0.0,0.0,97,0.00,,,0.09,weatherlink.com 1.10,2013-01-28 07:51:00,